Regional Weather Roundup
Issued by NWS Sioux Falls, SD

Home | Current Version | Previous Version | Graphics & Text | Print | Product List | Glossary On
Versions: 1 2 3 4 5 6 7 8 9 10 11 12 13 14 15 16 17 18 19 20 21 22 23 24 25 26 27 28 29 30 31 32 33 34 35 36 37 38 39 40 41 42 43 44 45 46 47 48 49 50
633
ASUS43 KFSD 281802
RWRFSD

WEATHER ROUNDUP FOR SE SOUTH DAKOTA/SW MINNESOTA/NW IOWA
NATIONAL WEATHER SERVICE SIOUX FALLS SD
100 PM CDT THU JUL 28 2016

NOTE: "FAIR" INDICATES FEW OR NO CLOUDS BELOW 12,000 FEET WITH NO
SIGNIFICANT WEATHER AND OR OBSTRUCTIONS TO VISIBILITY.


SDZ038>040-050-052>070-281900-
SOUTHEAST SOUTH DAKOTA

CITY           SKY/WX    TMP DP  RH WIND       PRES   REMARKS
BROOKINGS      MOSUNNY   71  61  70 N6        30.08S
CHAMBERLAIN    MOSUNNY   80  60  51 SW3       30.09S
6HR MIN TEMP:  61; 6HR MAX TEMP:  81;

HURON          SUNNY     77  61  57 N9        30.07F
6HR MIN TEMP:  60; 6HR MAX TEMP:  77;

MADISON        FAIR      72  64  78 NE7       30.09S
MITCHELL       SUNNY     79  59  50 N10       30.07F
6HR MIN TEMP:  61; 6HR MAX TEMP:  79;

SIOUX FALLS    PTSUNNY   76  63  64 VRB5      30.06F
6HR MIN TEMP:  63; 6HR MAX TEMP:  76;

WINNER         FAIR      78  62  57 E7        30.10F
YANKTON        MOSUNNY   79  55  44 NW10      30.05S
$$

MNZ071-072-080-081-089-090-097-098-281900-
SOUTHWEST MINNESOTA

CITY           SKY/WX    TMP DP  RH WIND       PRES   REMARKS
FAIRMONT       CLOUDY    68  63  83 N8        30.03S
JACKSON        CLOUDY    68  61  77 N10       30.06S
LUVERNE        PTSUNNY   73  59  60 NE8       30.07R
MARSHALL       CLOUDY    70  62  76 N7        30.08F
6HR MIN TEMP:  61; 6HR MAX TEMP:  70;

MONTEVIDEO     CLOUDY    73  61  64 E8        30.08F
REDWOOD FALLS  CLOUDY    71  62  73 N8        30.05F
TRACY          CLOUDY    71  64  80 NE7       30.08S
WINDOM         PTSUNNY   70  63  78 N6        30.05F
WORTHINGTON    CLOUDY    68  61  78 N8        30.07F
$$

IAZ001>003-012>014-020>022-031-032-NEZ013-014-SDZ071-281900-
NORTHWEST IOWA

CITY           SKY/WX    TMP DP  RH WIND       PRES   REMARKS
CHEROKEE       MOSUNNY   75  65  69 N8        30.03S
DENISON        MOSUNNY   77  64  65 NW9G15    30.01R
ESTHERVILLE    CLOUDY    69  63  81 N8        30.04F
LE MARS        MOSUNNY   77  63  61 N12       30.05S
SHELDON        CLOUDY    73  64  73 N8        30.04S
SIOUX CITY     SUNNY     80  61  52 NW10      30.04F
6HR MIN TEMP:  65; 6HR MAX TEMP:  80;

SPENCER        CLOUDY    72  61  68 N10       30.04F
6HR MIN TEMP:  63; 6HR MAX TEMP:  72;

STORM LAKE       N/A     73  64  73 NW7G14    30.04S
$$

ABBREVIATIONS USED IN REMARKS
   TC - TEMPERATURE IN CELSIUS
  WCI - WIND CHILL INDEX
   HX - HEAT INDEX
  VSB - VISIBILITY





USA.gov is the U.S. government's official web portal to all federal, state and local government web resources and services.